Location: Unspecified
(48.5670°N, 0.0000°E)
Time: 23:04:44
(UTC+00:00)

Vanguard 2 Rocket - Pass Details

Date: 29 August 2019
Orbit: 554 x 3327 km, 32.9° (Epoch: 19 September)

Event Time Altitude Azimuth Distance (km) Brightness Sun altitude
Rises 05:50:33 0° 266° (W) 5,544 10.2 5.3°
Reaches altitude 10° 05:54:12 10° 258° (WSW) 4,893 10.0 5.9°
Maximum altitude 06:07:01 35° 200° (SSW) 4,124 10.1 8.0°
Drops below altitude 10° 06:23:38 10° 145° (SE) 6,280 11.7 10.8°
Sets 06:29:12 0° 137° (SE) 7,252 12.2 11.7°
